Stations météo

réclame
Mon MeteoGroup
St. James's Park, Grande-Bretagne (3770): Température de l'air & dewpoint: 06.12.2017 06:00:00 - 12.12.2017 06:00:00 (GMT)St. James's Park, Grande-Bretagne (3770): Température de l'air -20cm & Température de l'air -100cm: 06.12.2017 06:00:00 - 12.12.2017 06:00:00 (GMT)St. James's Park, Grande-Bretagne (3770): Quantités de précipitations: 06.12.2017 06:00:00 - 12.12.2017 06:00:00 (GMT)
Date & Time tt [°C] td [°C] tt -20cm [°C] tt -100cm [°C] rr [mm]
12.12.2017 06:00:00 -1,7 -3,2 - - 0,0
12.12.2017 05:00:00 -1,5 -3,4 - - 0,0
12.12.2017 04:00:00 -1,3 -3,3 - - 0,0
12.12.2017 03:00:00 -1,1 -3,3 - - 0,0
12.12.2017 02:00:00 -0,3 -2,7 - - 0,0
12.12.2017 01:00:00 0,0 -3,0 - - 0,0
12.12.2017 00:00:00 -0,1 -3,0 - - 0,0
11.12.2017 23:00:00 -0,2 -3,9 - - 0,0
11.12.2017 22:00:00 1,4 -2,9 - - 0,0
11.12.2017 21:00:00 1,8 -2,6 - - 0,0
11.12.2017 20:00:00 2,1 -2,1 - - 0,0
11.12.2017 19:00:00 2,2 -1,2 - - 0,0
11.12.2017 18:00:00 2,6 -0,8 - - 0,0
11.12.2017 17:00:00 3,3 -0,5 - - 0,0
11.12.2017 16:00:00 3,3 0,1 - - 0,0
11.12.2017 15:00:00 3,7 0,9 - - 0,2
11.12.2017 14:00:00 3,0 1,8 - - 1,8
11.12.2017 13:00:00 2,0 0,9 - - 1,2
11.12.2017 12:00:00 2,4 1,3 - - 1,4
11.12.2017 11:00:00 3,0 1,9 - - 1,8
11.12.2017 10:00:00 3,2 1,9 - - 1,0
11.12.2017 09:00:00 3,3 2,0 6,2 10,2 1,0
11.12.2017 08:00:00 3,3 2,0 - - 1,0
11.12.2017 07:00:00 3,2 1,7 - - 0,8
11.12.2017 06:00:00 2,7 1,3 - - 0,6
11.12.2017 05:00:00 1,9 1,1 - - 0,0
11.12.2017 04:00:00 1,6 0,9 - - 0,0
11.12.2017 03:00:00 1,4 0,8 - - 0,0
11.12.2017 02:00:00 1,6 1,0 - - 0,0
11.12.2017 01:00:00 1,6 0,9 - - 0,0
11.12.2017 00:00:00 1,7 0,9 - - 0,0
10.12.2017 23:00:00 1,9 1,0 - - 0,0
10.12.2017 22:00:00 2,0 1,0 - - 0,0
10.12.2017 21:00:00 2,0 0,9 - - 0,0
10.12.2017 20:00:00 1,9 1,0 - - 0,0
10.12.2017 19:00:00 1,7 0,8 - - 0,0
10.12.2017 18:00:00 1,7 0,8 - - 0,0
10.12.2017 17:00:00 1,6 0,7 - - 0,0
10.12.2017 16:00:00 1,8 0,8 - - 0,0
10.12.2017 15:00:00 1,6 0,8 - - 1,0
10.12.2017 14:00:00 1,2 0,5 - - 2,0
10.12.2017 13:00:00 1,4 0,6 - - 1,4
10.12.2017 12:00:00 1,3 0,6 - - 1,6
10.12.2017 11:00:00 1,2 0,4 - - 1,4
10.12.2017 10:00:00 1,1 0,3 - - 1,6
10.12.2017 09:00:00 1,1 0,5 6,7 10,5 2,0
10.12.2017 08:00:00 2,0 1,2 - - 2,4
10.12.2017 07:00:00 2,8 1,9 - - 3,4
10.12.2017 06:00:00 2,9 2,2 - - 2,2
10.12.2017 05:00:00 2,5 1,4 - - 1,4
10.12.2017 04:00:00 2,4 0,1 - - 0,2
10.12.2017 03:00:00 3,1 -1,9 - - 0,0
10.12.2017 02:00:00 2,8 -2,6 - - 0,0
10.12.2017 01:00:00 1,9 -2,8 - - 0,0
10.12.2017 00:00:00 1,4 -2,4 - - 0,0
09.12.2017 23:00:00 0,7 -2,4 - - 0,0
09.12.2017 22:00:00 1,7 -2,1 - - 0,0
09.12.2017 21:00:00 2,7 -1,2 - - 0,0
09.12.2017 20:00:00 2,6 -1,0 - - 0,0
09.12.2017 19:00:00 2,1 -0,8 - - 0,0
09.12.2017 18:00:00 1,6 -1,3 - - 0,0
09.12.2017 17:00:00 2,5 -0,8 - - 0,0
09.12.2017 16:00:00 3,1 -1,3 - - 0,0
09.12.2017 15:00:00 3,6 -1,1 - - 0,0
09.12.2017 14:00:00 3,7 -0,9 - - 0,0
09.12.2017 13:00:00 3,8 -1,5 - - 0,0
09.12.2017 12:00:00 3,5 -1,8 - - 0,0
09.12.2017 11:00:00 3,5 -0,8 - - 0,0
09.12.2017 10:00:00 0,7 -1,8 - - 0,0
09.12.2017 09:00:00 -0,4 -2,4 7,7 10,7 0,0
09.12.2017 08:00:00 -1,0 -3,2 - - 0,0
09.12.2017 07:00:00 -0,4 -2,3 - - 0,0
09.12.2017 06:00:00 -0,2 -2,5 - - 0,0
09.12.2017 05:00:00 -0,3 -2,6 - - 0,0
09.12.2017 04:00:00 0,0 -2,7 - - 0,0
09.12.2017 03:00:00 0,4 -2,4 - - 0,0
09.12.2017 02:00:00 0,5 -2,5 - - 0,0
09.12.2017 01:00:00 0,4 -2,6 - - 0,0
09.12.2017 00:00:00 0,7 -2,4 - - 0,0
08.12.2017 23:00:00 1,2 -2,2 - - 0,0
08.12.2017 22:00:00 1,7 -2,1 - - 0,0
08.12.2017 21:00:00 1,4 -1,7 - - 0,0
08.12.2017 20:00:00 1,5 -1,8 - - 0,0
08.12.2017 19:00:00 1,4 -2,1 - - 0,0
08.12.2017 18:00:00 2,2 -2,4 - - 0,0
08.12.2017 17:00:00 2,6 -2,3 - - 0,0
08.12.2017 16:00:00 3,2 -2,3 - - 0,0
08.12.2017 15:00:00 4,3 -2,0 - - 0,0
08.12.2017 14:00:00 4,6 -2,1 - - 0,0
08.12.2017 13:00:00 4,4 -1,9 - - 0,0
08.12.2017 12:00:00 5,0 -0,9 - - 0,0
08.12.2017 11:00:00 4,0 -0,6 - - 0,0
08.12.2017 10:00:00 3,5 -0,7 - - 0,0
08.12.2017 09:00:00 3,3 -0,8 8,5 10,7 0,0
08.12.2017 08:00:00 2,9 -0,6 - - 0,0
08.12.2017 07:00:00 3,4 -0,9 - - 0,0
08.12.2017 06:00:00 3,9 -1,2 - - 0,0
08.12.2017 05:00:00 3,5 -1,3 - - 0,0
08.12.2017 04:00:00 3,5 -1,2 - - 0,0
08.12.2017 03:00:00 3,6 -0,5 - - 0,0
08.12.2017 02:00:00 3,9 0,3 - - 0,0
08.12.2017 01:00:00 4,2 0,2 - - 0,0
08.12.2017 00:00:00 4,4 0,3 - - 0,0
07.12.2017 23:00:00 4,9 0,5 - - 0,0
07.12.2017 22:00:00 5,5 0,7 - - 0,0
07.12.2017 21:00:00 6,3 0,9 - - 0,0
07.12.2017 20:00:00 6,6 1,3 - - 0,0
07.12.2017 19:00:00 7,2 1,6 - - 0,0
07.12.2017 18:00:00 7,9 2,7 - - 0,0
07.12.2017 17:00:00 7,9 2,8 - - 0,0
07.12.2017 16:00:00 8,6 3,2 - - 0,0
07.12.2017 15:00:00 9,1 3,9 - - 0,0
07.12.2017 14:00:00 9,3 5,1 - - 0,0
07.12.2017 13:00:00 9,5 7,1 - - 1,4
07.12.2017 12:00:00 11,9 11,1 - - 0,6
07.12.2017 11:00:00 11,5 10,1 - - 0,4
07.12.2017 10:00:00 11,7 10,0 - - 0,0
07.12.2017 09:00:00 11,6 9,8 8,7 10,7 0,0
07.12.2017 08:00:00 11,1 9,2 - - 0,0
07.12.2017 07:00:00 10,6 9,0 - - 0,2
07.12.2017 06:00:00 10,5 8,7 - - 0,0
07.12.2017 05:00:00 10,2 8,1 - - 0,0
07.12.2017 04:00:00 9,9 7,7 - - 0,0
07.12.2017 03:00:00 9,5 7,4 - - 0,0
07.12.2017 02:00:00 9,4 7,2 - - 0,0
07.12.2017 01:00:00 9,7 6,8 - - 0,0
07.12.2017 00:00:00 9,7 6,5 - - 0,0
06.12.2017 23:00:00 9,6 5,9 - - 0,0
06.12.2017 22:00:00 9,3 5,4 - - 0,0
06.12.2017 21:00:00 9,2 4,7 - - 0,0
06.12.2017 20:00:00 9,5 4,9 - - 0,0
06.12.2017 19:00:00 9,7 5,3 - - 0,0
06.12.2017 18:00:00 10,1 6,0 - - 0,0
06.12.2017 17:00:00 10,1 6,6 - - 0,0
06.12.2017 16:00:00 10,5 5,3 - - 0,0
06.12.2017 15:00:00 11,0 4,5 - - 0,0
06.12.2017 14:00:00 10,9 4,9 - - 0,0
06.12.2017 13:00:00 10,9 5,7 - - 0,0
06.12.2017 12:00:00 10,9 5,6 - - 0,0
06.12.2017 11:00:00 10,4 4,8 - - 0,0
06.12.2017 10:00:00 10,1 4,6 - - 0,0
06.12.2017 09:00:00 9,7 4,1 8,4 10,7 0,0
06.12.2017 08:00:00 9,5 4,2 - - 0,0
06.12.2017 07:00:00 9,5 4,0 - - 0,0
06.12.2017 06:00:00 9,2 3,5 - - 0,0

tt = Température de l'air
td = dewpoint
tt -20cm = Température de l'air -20cm
tt -100cm = Température de l'air -100cm
rr = Quantités de précipitations

stations d'obs. à proximité